Retour au catalogue

USA 234

ActifMilitaireLEO
NORAD 38109·PAYLOAD·🇺🇸 United States

Lancé Apr 3, 2012 depuis Vandenberg Space Force Base

Loading…

Prochains Passages (prochaines 24 heures)

TLE

VieillissantSource: Mike McCants

Époque: Sep 9, 2026, 18:44 UTC

1 38109U 12014A   26252.78095032 0.00000000  00000-0  00000-0 0    03
2 38109 122.9977  18.4288 0003745  90.5609 269.3753 13.41439983    09

Suivez USA 234 en temps réel avec AllMySat

Download on the App Store